RH
86 83 86 97 97 97 96 94 94 94 95 96 96 96 95 94 94 93 93 94 94 92 92 93 93 94 93 94 94 91 68 72
86 87 84 84 87 98 96 96 95 95 95 96 97 96 95 93 94 93 93 94 94 92 93 93 94 94 92 93 94 92 62 63
85 85 84 85 85 87 96 96 96 96 93 96 94 74 77 79 82 94 94 95 94 92 93 94 96 95 94 92 92 63 65 61
79 80 80 81 76 84 85 82 81 79 79 82 79 79 77 72 82 94 94 95 94 94 93 98 92 84 80 86 65 68 63 65
79 80 78 79 75 77 84 79 85 86 86 88 88 82 85 80 84 75 76 89 75 78 79 75 90 90 80 74 68 67 61 61
73 79 81 81 74 75 80 80 85 88 89 90 90 89 90 88 85 86 76 74 80 74 72 91 81 79 76 76 74 68 62 59
74 82 84 81 81 77 77 84 86 85 87 88 88 87 89 88 86 89 84 84 79 80 81 79 78 77 75 73 70 70 69 64
71 77 82 81 82 79 79 82 84 84 84 86 90 86 88 93 90 88 90 83 83 78 79 81 77 77 79 80 73 68 66 68
71 77 79 82 83 80 79 77 80 81 79 84 89 86 86 92 92 89 84 90 88 88 89 89 80 80 80 84 70 69 67 66
67 67 78 80 78 79 79 80 81 81 82 81 85 85 86 91 93 89 87 92 96 95 95 94 84 80 78 76 75 74 70 68
66 71 74 80 78 76 78 82 84 82 87 86 84 85 88 91 90 88 91 89 92 93 95 89 90 90 81 78 79 79 74 67
63 71 73 77 73 76 76 80 77 83 82 78 85 84 90 90 88 90 90 91 93 92 89 93 87 85 84 83 84 84 79 77
65 77 76 73 73 79 77 80 83 85 73 74 78 80 87 89 88 90 89 91 94 94 94 96 97 94 96 98 97 91 91 88
59 69 79 79 70 69 71 73 76 83 81 77 77 78 86 83 87 88 91 92 93 95 95 98 96 96 95 92 95 94 96 86
69 67 72 85 76 76 85 88 89 93 89 86 84 79 80 82 84 84 90 90 91 90 94 89 93 96 85 76 92 83 86 86
70 73 73 77 89 84 89 83 84 82 85 88 89 83 78 81 88 87 88 91 93 90 88 90 85 90 92 89 77 66 73 79
70 71 75 80 84 91 91 88 81 73 81 87 92 88 89 86 91 92 93 90 88 92 88 90 89 82 82 90 94 90 80 79
71 73 73 77 82 88 94 92 87 90 86 86 85 93 95 96 94 94 95 95 93 92 87 85 84 85 82 84 85 87 91 86
72 76 79 76 80 84 87 90 92 94 85 89 91 93 97 96 96 96 95 94 93 92 92 88 86 82 83 84 82 80 71 79
80 79 80 78 81 83 84 87 91 90 92 93 92 93 90 86 93 93 89 92 92 93 94 92 92 92 86 87 84 82 81 85
Wind_Speed
11 14 14 12 12 13 13 13 13 13 13 13 12 12 13 14 13 12 11 13 12 12 11 11 12 12 11 9 8 8 7 5
13 13 13 14 13 11 12 12 13 12 12 12 11 10 10 11 11 11 11 13 12 11 11 11 11 11 10 8 7 7 6 6
12 13 13 13 13 12 11 11 11 11 12 11 11 10 13 13 10 11 11 11 12 11 11 10 10 9 9 8 8 4 5 4
13 14 14 13 10 12 12 12 11 11 12 13 10 11 11 11 10 10 10 11 10 11 11 11 10 6 5 6 4 4 4 5
13 13 13 13 10 8 6 7 7 7 12 11 10 9 8 8 7 8 8 9 8 9 9 7 7 6 6 6 5 5 4 4
13 13 12 13 8 9 7 7 6 6 9 11 9 7 9 8 7 9 8 8 9 9 6 7 9 8 7 7 7 5 4 4
14 13 13 12 12 9 9 7 6 8 9 11 9 9 9 8 9 8 8 8 8 8 7 8 8 8 7 7 7 7 7 4
15 16 16 14 12 14 11 8 9 8 9 10 10 9 9 8 9 9 8 8 8 8 8 7 7 7 7 6 6 6 6 5
18 18 17 17 16 13 11 10 11 10 10 13 11 9 10 8 8 9 9 8 10 7 6 6 6 5 6 6 6 7 6 6
19 16 19 18 17 13 10 10 9 10 8 9 14 12 11 9 6 9 9 8 6 6 6 5 7 7 6 6 6 6 7 7
20 20 20 20 17 13 12 12 10 9 8 8 13 13 11 8 7 8 10 8 8 8 5 7 6 6 6 6 6 6 7 6
20 17 19 18 13 11 10 9 10 10 10 12 14 11 11 10 8 9 10 8 8 8 10 7 6 7 6 6 7 6 6 7
16 16 17 14 13 12 12 13 10 10 11 14 15 14 14 14 9 10 10 10 9 10 7 8 6 6 4 2 4 7 8 7
3 7 16 15 13 12 10 10 10 9 9 12 15 17 17 15 14 13 12 9 11 11 10 5 5 8 4 2 3 4 7 10
5 4 4 11 17 11 8 5 4 8 10 10 12 15 16 17 15 13 14 11 10 12 11 13 8 7 11 5 3 6 3 5
8 7 7 3 6 11 14 11 11 9 9 7 9 16 16 16 14 14 13 9 11 11 11 11 9 8 6 7 6 2 4 4
9 9 12 10 5 3 9 11 9 8 8 10 11 13 12 14 12 13 12 10 12 11 14 13 9 8 7 5 7 5 6 6
13 13 14 13 11 10 10 6 8 7 10 10 10 7 8 11 13 13 11 9 11 11 14 15 13 9 9 9 8 6 6 7
13 16 16 14 13 11 10 9 8 7 10 9 9 7 8 12 14 14 13 15 14 12 12 13 13 12 13 10 10 10 9 8
17 17 16 14 13 13 11 12 6 5 7 8 6 8 10 13 14 14 15 16 14 12 11 11 11 11 15 12 9 10 10 6
Wind_Direction
164 175 173 163 161 159 164 167 166 162 159 159 159 158 155 158 158 158 154 142 150 154 150 144 142 140 142 146 148 162 167 170
172 178 182 179 176 166 169 172 170 164 161 160 156 154 159 160 157 160 158 152 154 160 153 148 146 147 147 144 149 159 184 176
187 183 183 181 180 182 172 178 177 166 163 160 157 175 177 172 174 162 160 160 158 163 156 151 146 149 151 150 155 189 186 188
195 191 186 183 183 184 188 186 191 187 183 176 179 179 181 183 180 168 164 160 160 162 156 131 154 159 172 164 188 186 195 191
209 196 190 184 186 186 180 189 187 190 188 180 181 177 178 178 178 183 180 171 174 171 162 166 173 164 178 199 192 190 201 197
210 214 198 188 182 188 183 186 191 189 189 185 180 178 181 178 181 185 188 185 180 178 180 176 179 177 179 192 203 209 211 205
206 204 206 193 188 183 194 185 185 199 192 189 186 187 184 179 185 183 188 186 185 182 181 187 186 178 178 191 206 217 225 223
199 205 205 199 199 188 188 196 179 190 199 196 193 191 187 186 187 189 188 190 187 190 186 195 195 190 183 189 210 215 226 231
193 198 202 202 202 197 188 198 194 190 197 201 196 194 197 188 191 192 189 187 188 184 183 199 201 192 199 193 216 225 235 235
198 190 195 206 200 201 196 192 202 194 189 198 200 201 192 188 192 198 189 177 166 166 171 190 211 206 206 210 214 227 233 231
207 190 195 201 204 194 204 201 200 199 179 193 200 200 191 186 193 196 188 185 181 182 179 193 200 207 218 218 220 223 235 232
214 193 194 197 199 193 201 205 212 212 202 195 191 200 189 195 195 183 190 190 187 187 189 186 198 207 216 227 229 229 237 238
217 201 195 186 191 195 199 209 206 214 219 207 197 198 196 200 199 191 191 195 188 181 180 182 194 181 162 195 222 224 225 234
123 185 194 193 192 197 203 210 215 214 216 214 206 201 192 199 197 196 192 185 189 183 180 169 191 174 173 164 223 217 220 231
355 117 169 206 201 195 187 171 203 193 208 211 210 209 204 200 200 203 191 186 193 194 184 200 190 185 208 202 181 235 183 211
1 42 71 77 229 191 195 202 203 210 205 202 199 213 212 208 195 199 200 192 192 194 186 202 193 189 203 235 248 231 208 216
18 48 52 39 35 348 201 220 227 218 203 201 199 210 215 208 196 192 190 196 204 192 196 197 202 194 202 177 225 234 244 250
24 37 38 33 38 40 32 260 218 215 215 214 211 198 191 200 200 195 186 192 208 198 205 203 197 198 196 201 192 203 204 212
20 29 33 28 31 28 28 21 353 325 250 219 197 196 196 201 190 187 184 187 191 196 205 208 202 205 201 205 214 227 236 218
22 26 24 21 28 22 25 19 346 328 324 308 228 210 213 218 211 213 206 185 180 194 201 209 205 210 211 216 220 225 223 201